Weather History for Amman, Jordan

Change the Weather History Date:

Thursday, January 17, 2013

  Actual Average Record
Temperature  
Mean Temperature 52 °F -  
Max Temperature 64 °F 53 °F 64 °F (2013)
Min Temperature 40 °F 40 °F 24 °F (2008)
Degree Days  
Heating Degree Days 13    
Growing Degree Days 2 (Base 50)    
Moisture  
Dew Point 31 °F    
Average Humidity 48    
Maximum Humidity 81    
Minimum Humidity 11    
Precipitation  
Precipitation 0.00 in 0.08 in - ()
Sea Level Pressure  
Sea Level Pressure 30.10 in    
Wind  
Wind Speed 1 mph ()    
Max Wind Speed 6 mph    
Max Gust Speed -    
Visibility 2.6 miles    
Events      
Averages and records for this station are not official NWS values.
T = Trace of Precipitation, MM = Missing Value Source: Averaged Metar Reports

Daily Weather History Graph

Daily Weather History Graph

Search for Another Location

Airport:

Trip Planner

Search our weather history database for the weather conditions in past years. The results will help you decide how hot, cold, wet, or windy it might be!

Date:

Astronomy

Jan. 17, 2013 Rise Set
Actual Time 7:36 AM EEST 5:56 PM EEST
Civil Twilight 7:10 AM EEST 6:22 PM EEST
Nautical Twilight 6:40 AM EEST 6:52 PM EEST
Astronomical Twilight 6:10 AM EEST 7:21 PM EEST
Moon 10:57 AM EEST (1/17) 11:59 PM EEST (1/17)
Length of Visible Light 11h 12m
Length of Day
10h 19m
Waxing Crescent, 34% of the Moon is Illuminated
Jan 17
Waxing Crescent
Jan 19
First Quarter
Jan 27
Full
Feb 3
Last Quarter
Feb 10
New

Hourly Weather History & Observations

Time (EEST) Temp. Windchill Dew Point Humidity Pressure Visibility Wind Dir Wind Speed Gust Speed Precip Events Conditions
12:00 AM 47 °F - 29 °F 36% 30.19 in 3 mi Calm Calm - -   Haze
12:00 AM 48.2 °F - 28.4 °F 46% 30.18 in 3.1 mi Calm Calm - N/A   Haze
1:00 AM 46.4 °F - 23.0 °F 40% 30.18 in 3.1 mi Calm Calm - N/A   Haze
2:00 AM 46.4 °F 43.5 °F 26.6 °F 46% 30.15 in 3.1 mi East 5.8 mph - N/A   Haze
3:00 AM 45 °F - 28 °F 39% 30.14 in 3 mi Calm Calm - -   Haze
3:00 AM 44.6 °F - 28.4 °F 53% 30.15 in 3.1 mi Calm Calm - N/A   Haze
4:00 AM 42.8 °F - 28.4 °F 57% 30.15 in 3.1 mi Calm Calm - N/A   Haze
5:00 AM 42.8 °F - 28.4 °F 57% 30.09 in 3.1 mi Calm Calm - N/A   Haze
6:00 AM 42.8 °F - 33.8 °F 70% 30.09 in 2.5 mi Calm Calm - N/A   Haze
7:00 AM 41.0 °F - 35.6 °F 81% 30.09 in 2.5 mi Calm Calm - N/A   Haze
8:00 AM 41.0 °F - 33.8 °F 76% 30.12 in 2.5 mi Calm Calm - N/A   Haze
9:00 AM 41 °F - 29 °F 51%  in 2 mi Calm Calm - -   Haze
9:00 AM 41.0 °F - 30.2 °F 65% 30.09 in 2.5 mi Calm Calm - N/A   Haze
10:00 AM 42.8 °F - 28.4 °F 57% 30.12 in 1.9 mi Calm Calm - N/A   Smoke
11:00 AM 51.8 °F - 30.2 °F 44% 30.12 in 1.9 mi Calm Calm - N/A   Smoke
12:00 PM 52 °F - 31 °F 33% 30.11 in 2 mi ENE 4.6 mph - -   Haze
12:00 PM 51.8 °F - 32.0 °F 47% 30.09 in 1.9 mi ENE 4.6 mph - N/A   Smoke
1:00 PM 55.4 °F - 33.8 °F 44% 30.09 in 1.9 mi NE 4.6 mph - N/A   Smoke
2:00 PM 60.8 °F - 35.6 °F 39% 30.06 in 1.9 mi NE 3.5 mph - N/A   Smoke
3:00 PM 64 °F - 23 °F 11% 30.03 in 3 mi SSW 5.8 mph - -   Haze
3:00 PM 64.4 °F - 23.0 °F 21% 30.06 in 3.1 mi SSW 5.8 mph - N/A   Haze
4:00 PM 60.8 °F - 30.2 °F 31% 30.06 in 3.1 mi Calm Calm - N/A   Haze
5:00 PM 59.0 °F - 33.8 °F 39% 30.06 in 3.1 mi Calm Calm - N/A   Haze
6:00 PM 56 °F - 36 °F 35% 30.08 in 2 mi Calm Calm - -   Haze
6:00 PM 55.4 °F - 35.6 °F 47% 30.06 in 1.9 mi Calm Calm - N/A   Haze
7:00 PM 53.6 °F - 33.8 °F 47% 30.09 in 2.5 mi South 4.6 mph - N/A   Haze
8:00 PM 53.6 °F - 33.8 °F 47% 30.09 in 2.5 mi SSW 4.6 mph - N/A   Haze
9:00 PM 50 °F - 33 °F 40% 30.11 in 3 mi SSE 4.6 mph - -   Haze
9:00 PM 50.0 °F - 33.8 °F 54% 30.09 in 3.1 mi SSE 4.6 mph - N/A   Haze
10:00 PM 48.2 °F - 35.6 °F 62% 30.09 in 3.1 mi Calm Calm - N/A   Haze
11:00 PM 48.2 °F - 35.6 °F 62% 30.09 in 3.1 mi Calm Calm - N/A   Haze